• In Hungary
  • List of Countries
  • For 7 days
  • Water Temperature
  • Satellite Maps
  • Weather Map
  • News
  • Weather Widgets
  • user-avatar
    Login

    Hourly Weather Gar

    Today, 19 July, Thursday

    Time Temperature Precipitation Wind Pressure Humidity
    00:00 +14°C° 0 mm 1 mps 746 mmHg 84%
    01:00 +14°C° 0.1 mm 1 mps 746 mmHg 84%
    02:00 +14°C° 0.1 mm 1 mps 746 mmHg 85%
    03:00 +13°C° 0.1 mm 1 mps 746 mmHg 86%
    04:00 +14°C° 0 mm 1 mps 745 mmHg 84%
    05:00 +14°C° 0 mm 1 mps 745 mmHg 83%
    06:00 +15°C° 0 mm 1 mps 745 mmHg 81%
    07:00 +17°C° 0 mm 2 mps 745 mmHg 72%
    08:00 +19°C° 0 mm 2 mps 746 mmHg 62%
    09:00 +21°C° 0 mm 2 mps 746 mmHg 53%
    10:00 +23°C° 0 mm 2 mps 745 mmHg 47%
    11:00 +25°C° 0 mm 2 mps 745 mmHg 41%
    12:00 +27°C° 0 mm 2 mps 745 mmHg 35%
    13:00 +27°C° 0 mm 2 mps 745 mmHg 35%
    14:00 +27°C° 0 mm 2 mps 745 mmHg 34%
    15:00 +28°C° 0 mm 2 mps 745 mmHg 34%
    16:00 +27°C° 0 mm 2 mps 745 mmHg 39%
    17:00 +26°C° 0 mm 1 mps 745 mmHg 43%
    18:00 +26°C° 0 mm 1 mps 744 mmHg 48%
    19:00 +24°C° 0 mm 1 mps 744 mmHg 53%
    20:00 +22°C° 0 mm 1 mps 744 mmHg 57%
    21:00 +20°C° 0 mm 1 mps 744 mmHg 62%
    22:00 +19°C° 0 mm 1 mps 744 mmHg 64%
    23:00 +18°C° 0 mm 1 mps 744 mmHg 65%

    Tomorrow, 20 July, Friday

    Time Temperature Precipitation Wind Pressure Humidity
    00:00 +16°C° 0 mm 2 mps 744 mmHg 67%
    01:00 +16°C° 0 mm 2 mps 744 mmHg 69%
    02:00 +15°C° 0 mm 2 mps 744 mmHg 71%
    03:00 +14°C° 0 mm 2 mps 744 mmHg 74%
    04:00 +15°C° 0 mm 2 mps 744 mmHg 73%
    05:00 +16°C° 0 mm 2 mps 745 mmHg 73%
    06:00 +17°C° 0 mm 2 mps 745 mmHg 73%
    07:00 +19°C° 0 mm 2 mps 745 mmHg 67%
    08:00 +21°C° 0 mm 2 mps 745 mmHg 62%
    09:00 +24°C° 0 mm 3 mps 745 mmHg 56%
    10:00 +25°C° 0 mm 3 mps 745 mmHg 51%
    11:00 +26°C° 0 mm 3 mps 745 mmHg 45%
    12:00 +27°C° 0 mm 3 mps 745 mmHg 40%
    13:00 +27°C° 0 mm 3 mps 745 mmHg 39%
    14:00 +27°C° 0 mm 3 mps 745 mmHg 37%
    15:00 +27°C° 0 mm 3 mps 745 mmHg 36%
    16:00 +26°C° 0 mm 3 mps 745 mmHg 37%
    17:00 +26°C° 0 mm 3 mps 745 mmHg 38%
    18:00 +25°C° 0 mm 3 mps 745 mmHg 39%
    19:00 +22°C° 0 mm 3 mps 746 mmHg 43%
    20:00 +19°C° 0 mm 3 mps 746 mmHg 48%
    21:00 +17°C° 0 mm 2 mps 746 mmHg 53%
    22:00 +15°C° 0 mm 2 mps 746 mmHg 50%
    23:00 +14°C° 0 mm 2 mps 746 mmHg 48%

    Day after tomorrow, 21 July, Saturday

    Time Temperature Precipitation Wind Pressure Humidity
    00:00 +13°C° 0 mm 2 mps 746 mmHg 45%
    01:00 +12°C° 0 mm 2 mps 746 mmHg 46%
    02:00 +10°C° 0 mm 2 mps 746 mmHg 47%
    03:00 +9°C° 0 mm 2 mps 746 mmHg 49%
    04:00 +9°C° 0 mm 2 mps 746 mmHg 49%
    05:00 +10°C° 0 mm 2 mps 746 mmHg 49%
    06:00 +10°C° 0 mm 2 mps 746 mmHg 49%
    07:00 +13°C° 0 mm 2 mps 746 mmHg 45%
    08:00 +16°C° 0 mm 2 mps 746 mmHg 41%
    09:00 +18°C° 0 mm 2 mps 746 mmHg 37%
    10:00 +20°C° 0 mm 2 mps 746 mmHg 33%
    11:00 +23°C° 0 mm 2 mps 746 mmHg 29%
    12:00 +24°C° 0 mm 2 mps 746 mmHg 25%
    13:00 +25°C° 0 mm 2 mps 745 mmHg 24%
    14:00 +26°C° 0 mm 2 mps 745 mmHg 24%
    15:00 +26°C° 0 mm 2 mps 745 mmHg 23%
    16:00 +26°C° 0 mm 2 mps 745 mmHg 28%
    17:00 +25°C° 0 mm 2 mps 745 mmHg 33%
    18:00 +24°C° 0 mm 1 mps 745 mmHg 38%
    19:00 +21°C° 0.2 mm 2 mps 745 mmHg 49%
    20:00 +19°C° 0.2 mm 2 mps 745 mmHg 60%
    21:00 +16°C° 0.2 mm 2 mps 745 mmHg 71%
    22:00 +15°C° 0.2 mm 2 mps 745 mmHg 75%
    23:00 +15°C° 0.2 mm 2 mps 745 mmHg 80%

    22 July, Sunday

    Time Temperature Precipitation Wind Pressure Humidity
    00:00 +14°C° 0.2 mm 2 mps 745 mmHg 84%
    01:00 +14°C° 0.4 mm 2 mps 745 mmHg 88%
    02:00 +13°C° 0.4 mm 2 mps 744 mmHg 91%
    03:00 +13°C° 0.4 mm 2 mps 744 mmHg 95%
    04:00 +12°C° 1.1 mm 3 mps 745 mmHg 95%
    05:00 +12°C° 1.1 mm 3 mps 745 mmHg 95%
    06:00 +12°C° 1.1 mm 4 mps 745 mmHg 95%
    07:00 +12°C° 1.1 mm 4 mps 745 mmHg 93%
    08:00 +12°C° 1.1 mm 4 mps 745 mmHg 91%
    09:00 +12°C° 1.1 mm 4 mps 745 mmHg 88%
    10:00 +15°C° 0.2 mm 4 mps 745 mmHg 75%
    11:00 +18°C° 0.2 mm 4 mps 745 mmHg 62%
    12:00 +21°C° 0.2 mm 5 mps 745 mmHg 48%
    13:00 +22°C° 0 mm 5 mps 745 mmHg 44%
    14:00 +23°C° 0 mm 5 mps 745 mmHg 40%
    15:00 +25°C° 0 mm 5 mps 745 mmHg 35%
    16:00 +25°C° 0 mm 5 mps 745 mmHg 36%
    17:00 +25°C° 0 mm 4 mps 745 mmHg 38%
    18:00 +23°C° 0 mm 4 mps 745 mmHg 39%
    19:00 +21°C° 0 mm 4 mps 745 mmHg 41%
    20:00 +20°C° 0 mm 4 mps 745 mmHg 43%
    21:00 +18°C° 0 mm 4 mps 745 mmHg 45%
    22:00 +17°C° 0 mm 3 mps 745 mmHg 46%
    23:00 +16°C° 0 mm 3 mps 745 mmHg 46%

    23 July, Monday

    Time Temperature Precipitation Wind Pressure Humidity
    00:00 +16°C° 0 mm 3 mps 745 mmHg 47%
    01:00 +14°C° 0 mm 3 mps 745 mmHg 48%
    02:00 +13°C° 0 mm 3 mps 745 mmHg 49%
    03:00 +13°C° 0 mm 3 mps 745 mmHg 50%
    04:00 +13°C° 0 mm 3 mps 745 mmHg 50%
    05:00 +13°C° 0 mm 3 mps 745 mmHg 51%
    06:00 +13°C° 0 mm 4 mps 745 mmHg 51%
    07:00 +15°C° 0 mm 4 mps 745 mmHg 47%
    08:00 +18°C° 0 mm 4 mps 745 mmHg 43%
    09:00 +20°C° 0 mm 5 mps 745 mmHg 39%
    10:00 +21°C° 0 mm 5 mps 745 mmHg 37%
    11:00 +23°C° 0 mm 5 mps 744 mmHg 35%
    12:00 +25°C° 0 mm 5 mps 744 mmHg 32%
    13:00 +25°C° 0 mm 5 mps 744 mmHg 32%
    14:00 +26°C° 0 mm 5 mps 743 mmHg 31%
    15:00 +26°C° 0 mm 5 mps 743 mmHg 31%
    16:00 +25°C° 0 mm 4 mps 743 mmHg 34%
    17:00 +24°C° 0 mm 3 mps 743 mmHg 37%
    18:00 +24°C° 0 mm 3 mps 743 mmHg 40%
    19:00 +22°C° 0 mm 3 mps 743 mmHg 39%
    20:00 +21°C° 0 mm 3 mps 743 mmHg 39%
    21:00 +20°C° 0 mm 3 mps 743 mmHg 38%
    22:00 +20°C° 0 mm 3 mps 744 mmHg 39%
    23:00 +19°C° 0 mm 3 mps 744 mmHg 39%

    24 July, Tuesday

    Time Temperature Precipitation Wind Pressure Humidity
    00:00 +18°C° 0 mm 3 mps 744 mmHg 40%
    01:00 +17°C° 0 mm 3 mps 744 mmHg 43%
    02:00 +17°C° 0 mm 3 mps 744 mmHg 45%
    03:00 +16°C° 0 mm 3 mps 744 mmHg 48%
    04:00 +16°C° 0 mm 3 mps 744 mmHg 50%
    05:00 +16°C° 0 mm 3 mps 744 mmHg 52%
    06:00 +16°C° 0 mm 3 mps 744 mmHg 54%
    07:00 +17°C° 0 mm 3 mps 744 mmHg 50%
    08:00 +19°C° 0 mm 3 mps 744 mmHg 46%
    09:00 +20°C° 0 mm 3 mps 744 mmHg 42%
    10:00 +21°C° 0.1 mm 2 mps 744 mmHg 46%
    11:00 +21°C° 0.1 mm 2 mps 744 mmHg 50%
    12:00 +21°C° 0.1 mm 2 mps 744 mmHg 54%
    13:00 +20°C° 0.2 mm 2 mps 744 mmHg 62%
    14:00 +20°C° 0.2 mm 1 mps 744 mmHg 70%
    15:00 +19°C° 0.2 mm 1 mps 744 mmHg 79%
    16:00 +18°C° 0 mm 2 mps 744 mmHg 75%
    17:00 +19°C° 0 mm 2 mps 744 mmHg 72%
    18:00 +19°C° 0 mm 2 mps 743 mmHg 69%
    19:00 +19°C° 0 mm 2 mps 743 mmHg 66%
    20:00 +18°C° 0 mm 2 mps 743 mmHg 63%
    21:00 +18°C° 0 mm 2 mps 743 mmHg 60%
    22:00 +18°C° 0 mm 2 mps 743 mmHg 55%
    23:00 +19°C° 0 mm 2 mps 743 mmHg 49%
    Show more